Starlink 5971

operational
NORAD ID: 56917 Int'l Des: 2023-083 Owner: SPXS Country: US Constellation: starlink
LEOCIRCULAR

Starlink 5971について

説明を読み込み中...

リアルタイム位置

3D地球を読み込み中...

次回通過

高度履歴

Altitude vs Time

uPlot chart will show altitude changes over time

軌道要素

1 56917U 23083AT 26062.13625825 .00000048 00000-0 18654-4 0 9992
2 56917 43.0041 104.4616 0001087 266.6834 93.3884 15.02536658150838
Epoch: Mar 3, 2026 • Age: 13 hours

現在のステータス

高度 561.7 km
速度 7.59 km/s
衛星直下点 37.63°N, 134.85°W
打ち上げ日 Jun 12, 2023
運用期間 2.7 years
タイプ internet

技術仕様

分類 Payload
質量 305.00 kg
乾燥質量 290.00 kg
総質量 305.00 kg
長さ 0.20 m
直径 2.80 m
スパン 9.00 m
形状 Box + pan
製造者 SPXS
バスタイプ Starlink
フェーズステータス In Orbit
所有者/国 SPXS/US

大規模コンステレーション

Loading constellations...